Location: Newsoms
(36.6240°N, 77.1250°W)
Time: 23:35:55
(UTC-04:00)

Daily predictions for brighter satellites

Satellite Brightness Start Highest point End
(mag) Time Altitude Azimuth Time Altitude Azimuth Time Altitude Azimuth
Cosmos 2297 Rocket 2.3 19:54:08 10° NNW 19:59:44 60° ENE 20:05:18 10° SE
Resurs 01 Rocket 1.6 19:57:59 10° SSE 20:02:22 70° ENE 20:06:48 10° N
Cosmos 2082 3.7 19:57:54 10° NNW 20:03:33 85° ENE 20:09:11 10° SSE
Cosmos 1975 3.3 20:00:13 10° SSE 20:04:04 42° E 20:07:58 10° NNE
Lacrosse 5 rocket 1.7 20:02:49 10° NW 20:06:28 55° SW 20:09:59 10° SSE
FengYun 1-2 T 4.4 20:01:20 10° SSE 20:06:49 56° ENE 20:12:17 10° N
ATLAS 2A CENTAUR R/B 3.7 20:03:18 10° WSW 20:07:47 16° SW 20:10:08 10° S
SJ-6B 4.2 20:08:37 10° S 20:12:09 40° W 20:15:43 10° NNW
HJ-1C 3.5 20:10:52 10° S 20:14:08 77° WSW 20:17:27 10° NNW
METEOR-M 4.2 20:09:33 10° SSE 20:14:54 88° WSW 20:20:17 10° NNW
Cosmos 1515 4.4 20:12:52 10° NNE 20:16:22 33° ENE 20:19:50 10° SE
Cosmos 2084 3.4 20:16:05 10° NNW 20:20:10 73° ENE 20:24:30 10° SE
Cosmos 1898 Rocket 3.8 20:15:28 10° N 20:20:36 49° ENE 20:25:39 10° SE
Cosmos 468 Rocket 3.9 20:20:26 10° S 20:25:32 74° ESE 20:30:40 10° NNE
Cosmos 841 Rocket 4.2 20:24:38 10° SSE 20:29:11 31° E 20:33:44 10° NE
Cosmos 1697 Rocket 2.7 20:23:51 10° SSW 20:29:30 88° ESE 20:35:10 10° NNE
Cosmos 1346 Rocket 4.3 20:27:41 10° NNW 20:31:25 39° W 20:35:10 10° SSW
Meteor 1-12 Rocket 4.5 20:28:46 10° SSW 20:34:30 79° W 20:40:24 10° N
Cosmos 2173 Rocket 4.4 20:28:38 10° SSE 20:34:32 42° E 20:40:25 10° NNE
Cosmos 220 Rocket 4.3 20:30:26 10° NNW 20:34:38 68° WSW 20:38:48 10° S
Cosmos 1743 3.4 20:32:08 10° SSE 20:35:38 32° E 20:39:10 10° NNE
OTV 4 3.2 20:37:49 10° SW 20:38:32 11° SSW 20:39:15 10° SSW
Cosmos 1626 Rocket 3.6 20:34:54 10° N 20:39:18 85° W 20:43:37 10° S
Cosmos 1814 Rocket 4.0 20:35:14 10° SSW 20:40:34 85° ESE 20:45:54 10° NNE
CZ-4B DEB 3.1 20:38:00 10° S 20:41:15 67° W 20:44:32 10° NNW
DELTA 2 R/B (1) 4.0 20:35:55 10° WNW 20:41:23 56° SSW 20:45:24 18° SE
Cosmos 1066 Rocket 4.3 20:36:46 10° N 20:42:27 60° E 20:48:11 10° SSE
SL-16 R/B 3.2 20:41:11 10° SSE 20:45:35 24° E 20:49:59 10° NE
Cosmos 1939 Rocket 4.2 20:46:28 21° E 20:47:19 22° ENE 20:50:34 10° NNE
Lacrosse 5 1.8 20:42:29 10° NW 20:47:34 84° NE 20:50:59 21° SE
Cosmos 1602 Rocket 4.0 20:46:01 10° NNW 20:50:25 62° W 20:54:45 10° S
USA 186 1.4 20:52:31 22° S 20:54:19 89° W 20:57:06 10° NNW
Cosmos 1980 Rocket 2.1 20:48:45 10° SSW 20:54:25 85° ESE 21:00:08 10° NNE
Cosmos 2100 Rocket 3.9 20:48:26 10° S 20:54:39 69° E 21:00:49 10° NNE
Iridium 4 Rocket 3.2 20:51:18 10° N 20:56:06 85° W 21:00:28 10° S
SPOT 5 4.4 20:57:22 18° ENE 20:57:43 18° ENE 21:00:56 10° NNE
FENGYUN 3A 3.9 20:54:53 10° S 21:00:11 69° WSW 21:05:32 10° NNW
ALOS 2.9 20:58:07 10° S 21:02:41 56° W 21:07:18 10° NNW
H-2A R/B 3.4 21:02:15 10° S 21:06:04 55° W 21:09:57 10° NNW
Cosmos 1666 3.5 21:13:59 34° NE 21:13:59 34° NE 21:16:36 10° NNE
Envisat 3.3 21:12:39 36° ESE 21:14:00 45° ENE 21:18:50 10° N
Cosmos 2061 Rocket 4.0 21:07:50 10° S 21:14:10 89° E 21:20:26 10° N
CZ-4 DEB 3.0 21:14:52 54° NE 21:14:52 54° NE 21:17:34 10° N
Cosmos 1459 Rocket 3.9 21:09:09 10° S 21:15:12 87° W 21:21:21 10° N
RESURS DK-1 2.9 21:11:24 10° NNW 21:15:27 54° WSW 21:17:35 25° S
OAO 2 Rocket 3.5 21:11:37 10° W 21:16:31 57° SSW 21:17:57 41° SE
Cosmos 1937 Rocket 3.8 21:12:11 10° NNW 21:17:27 68° WSW 21:21:07 20° S
Cosmos 1842 4.2 21:16:00 10° N 21:18:46 32° NE 21:18:46 32° NE
Cosmos 2263 Rocket 3.7 21:16:02 10° N 21:19:58 19° NE 21:20:21 19° ENE
Cosmos 1606 Rocket 3.4 21:16:54 17° S 21:20:18 86° E 21:24:45 10° N
Tiangong 1 1.5 21:18:24 10° WNW 21:21:05 56° WSW 21:21:05 56° WSW
Cosmos 2058 Rocket 3.1 21:22:10 53° ESE 21:22:33 55° E 21:26:58 10° NNE
Cosmos 990 Rocket 4.0 21:18:04 10° NNW 21:23:20 83° WSW 21:25:45 33° S
Cosmos 1725 Rocket 4.1 21:23:02 33° SSE 21:25:29 52° E 21:31:31 10° NNE
Cosmos 2322 Rocket 2.1 21:24:21 10° S 21:29:53 64° ESE 21:35:26 10° NNE
ERS-1 Rocket 2.8 21:29:00 42° SSE 21:30:45 86° ENE 21:35:48 10° NNW
Cosmos 1340 2.7 21:27:03 10° NNW 21:30:50 74° W 21:31:12 67° SW
Cosmos 1726 Rocket 3.9 21:40:10 31° SSW 21:42:08 63° W 21:46:32 10° N
Meteor 2-9 Rocket 4.0 21:42:27 37° S 21:44:41 87° E 21:50:06 10° N
Cosmos 2233 Rocket 4.3 21:46:04 44° ENE 21:46:04 44° ENE 21:51:24 10° NNE
H-2A R/B 4.1 21:54:29 14° NE 21:54:29 14° NE 21:55:37 10° NNE
Meteor 1-15 Rocket 4.3 21:56:10 41° SSW 21:58:21 82° W 22:04:14 10° N
BREEZE-M DEB (TANK) 3.6 21:57:49 10° NW 21:59:21 35° NNW 21:59:21 35° NNW
ASTEX 1 3.5 22:00:22 10° N 22:05:15 73° WNW 22:05:15 73° WNW
Cosmos 2228 4.2 22:08:22 38° NNW 22:08:22 38° NNW 22:11:09 10° N
Cosmos 1125 Rocket 3.6 22:03:43 10° NNW 22:08:30 73° NW 22:08:30 73° NW
H-2A R/B 3.2 22:12:09 38° NW 22:12:09 38° NW 22:14:54 10° NNW
Cosmos 540 Rocket 3.8 22:12:08 60° NNW 22:12:08 60° NNW 22:16:29 10° NNE
SPOT 1/Viking Rocket 4.3 22:13:17 42° NNE 22:13:17 42° NNE 22:16:57 10° N
ARGOS 3.9 22:20:25 44° NNE 22:20:25 44° NNE 22:24:13 10° N
SL-16 R/B 3.3 22:24:00 10° SW 22:29:21 42° WNW 22:34:44 10° N
Lacrosse 5 4.3 22:27:47 10° W 22:29:52 12° WSW 22:30:12 12° WSW
BREEZE-M TANK 4.3 22:27:37 10° WNW 22:31:14 30° W 22:31:14 30° W
SPOT 5 4.2 22:36:37 37° WNW 22:36:37 37° WNW 22:40:02 10° NNW
Cosmos 2360 Rocket 4.0 22:42:34 22° NNE 22:42:34 22° NNE 22:44:26 10° NNE
Terra 4.1 22:47:05 17° N 22:47:05 17° N 22:48:18 10° N
Cosmos 2263 Rocket 3.6 22:58:48 10° NNW 23:02:03 34° NW 23:02:03 34° NW
H-2A R/B 4.5 23:35:07 17° NNW 23:35:07 17° NNW 23:36:18 10° NNW
USA 215 4.4 23:39:53 38° N 23:39:53 38° N 23:44:04 10° NW
